SCP
0 0 0 0 0 0 0 0 0 0 0 0 0 0 0 0 0 0 0 0 0 0 0 0 0 0 0 0 0 0 0 0 0 0 0 0 0 0 0 0 0 0 1
0 0 0 0 0 0 0 0 0 0 0 0 0 0 0 0 0 0 0 0 0 0 0 0 0 0 0 0 0 0 0 0 0 0 0 0 0 0 0 0 0 0 1
0 0 0 0 0 0 0 0 0 0 0 0 0 0 0 0 0 0 0 0 0 0 0 0 0 0 0 0 0 0 0 0 0 0 0 0 0 0 0 0 0 0 0
0 0 0 0 0 0 0 0 0 0 0 0 0 0 0 0 0 0 0 0 0 0 0 0 0 0 0 0 0 0 0 0 0 0 0 0 0 0 0 0 0 0 0
0 0 0 0 0 0 0 0 0 0 0 0 0 0 0 0 0 0 0 0 0 0 0 0 0 0 0 0 0 0 0 0 0 0 0 0 0 0 0 0 0 0 0
0 0 0 0 0 0 0 0 0 0 0 0 -0 0 0 0 0 0 0 0 0 0 0 0 0 0 0 0 0 0 0 0 0 0 0 0 0 0 0 0 0 0 0
0 0 0 0 0 0 0 0 0 0 0 0 -0 0 0 0 0 -0 0 0 0 0 0 0 0 0 0 0 0 0 0 0 0 0 0 0 0 0 0 0 0 0 0
0 0 0 0 0 0 0 0 0 0 0 0 0 -0 0 0 0 0 0 0 0 0 0 0 0 0 0 0 0 0 0 0 0 0 0 0 0 0 0 0 0 0 0
0 0 0 0 0 0 0 0 0 0 0 0 0 0 0 0 0 0 0 0 0 0 0 0 0 0 0 0 0 0 0 0 0 0 0 0 0 0 0 0 0 0 0
0 0 0 0 0 0 0 0 0 0 0 0 0 0 0 0 0 0 0 0 0 0 0 0 0 0 0 0 0 0 0 0 0 0 0 0 0 0 0 0 0 0 0
0 0 0 0 0 0 0 0 0 0 0 0 0 0 0 0 0 0 0 0 0 0 0 0 0 0 0 0 0 0 0 0 0 0 0 0 0 0 0 0 0 0 0
0 0 0 0 0 0 0 0 0 0 0 0 0 0 0 0 0 0 0 0 0 0 0 0 0 0 0 0 0 0 0 0 0 0 0 0 0 0 0 0 0 0 0
0 0 0 0 0 0 0 0 0 0 0 0 0 0 0 0 0 0 0 0 0 0 0 0 0 0 0 0 0 0 0 0 0 0 0 0 0 0 0 0 0 0 0
0 0 0 0 0 0 0 0 0 0 0 0 0 0 0 0 0 0 0 0 0 0 0 0 0 0 0 0 0 0 0 0 0 0 0 0 0 0 0 0 0 0 0
0 0 0 0 0 0 0 0 0 0 0 0 0 0 1 0 1 0 0 0 0 0 0 0 0 0 0 0 0 0 0 0 0 0 0 0 0 0 0 0 0 0 0
0 0 0 0 0 0 0 0 0 0 0 0 0 0 0 1 1 1 1 0 0 0 0 0 0 0 0 0 0 0 0 0 0 0 0 0 0 0 0 0 0 0 0
0 0 0 0 0 0 0 0 0 0 0 0 0 0 0 0 1 1 1 1 1 0 0 0 0 0 0 0 0 0 0 0 0 0 0 0 0 0 0 0 0 0 0
0 0 0 0 0 0 0 0 0 0 0 0 0 0 0 0 0 0 0 0 1 1 1 0 0 0 0 0 0 0 0 0 0 0 0 0 0 0 0 0 0 0 0
0 0 0 0 0 0 0 0 0 0 0 0 0 0 0 0 0 0 0 0 0 0 1 1 1 0 0 0 0 0 0 0 0 0 0 0 0 0 0 0 0 0 0
0 0 0 0 0 0 0 0 0 0 0 0 0 0 0 0 0 0 0 0 0 0 0 1 1 0 0 0 0 0 0 0 0 0 0 0 0 0 0 0 0 0 0
0 0 0 0 0 0 0 0 0 0 0 0 0 0 0 0 0 0 0 0 0 0 0 0 0 0 0 0 0 0 0 0 0 0 0 0 0 0 0 0 0 0 0
0 0 0 0 0 0 0 0 0 0 0 0 0 0 0 0 0 0 0 0 0 0 0 0 0 0 0 0 0 0 0 0 0 0 -0 0 0 0 0 0 0 0 0
0 0 0 0 0 0 0 0 0 0 0 0 0 0 0 0 0 0 0 0 0 0 0 0 0 0 0 0 0 0 -0 -0 0 0 0 0 0 0 0 0 0 0 0
0 0 0 0 0 0 0 0 0 0 0 0 0 0 0 0 0 0 0 0 0 0 0 0 0 0 0 0 0 0 -0 -0 0 0 0 0 0 0 0 0 0 0 0
0 0 0 0 0 0 0 0 0 0 0 0 0 0 0 0 0 0 0 0 0 0 0 0 0 0 0 0 0 0 -0 -0 0 0 0 0 0 0 0 0 0 0 0
0 0 0 0 0 0 0 0 0 0 0 0 0 0 0 0 0 0 0 0 0 0 0 0 0 0 0 0 -0 0 -0 -0 0 0 0 0 0 0 0 -0 0 0 0
Wind_Speed_500mb
19 19 18 18 20 22 24 25 25 25 22 19 16 15 14 14 15 10 10 23 20 18 19 23 29 31 30 28 27 31 34 35 34 40 43 43 44 48 49 49 47 48 49
25 19 21 21 23 23 23 24 25 24 23 19 15 14 11 11 10 10 11 17 18 22 26 31 34 33 33 29 27 25 27 30 32 33 39 45 46 46 48 49 50 49 49
23 21 20 21 22 22 24 23 24 23 22 18 15 10 6 6 6 7 8 12 17 27 31 36 36 35 35 32 29 27 27 28 29 30 31 36 40 43 46 50 53 52 51
24 20 20 21 25 22 23 25 24 24 22 18 13 8 5 3 5 7 9 10 18 21 28 38 35 33 33 32 31 29 30 25 29 30 33 34 37 39 44 47 50 53 54
16 20 19 22 23 20 21 24 23 24 23 17 12 9 6 4 6 10 14 15 19 21 24 27 38 32 32 31 30 30 31 29 30 28 26 29 34 36 39 43 48 52 53
16 19 18 23 23 19 19 23 24 23 21 20 9 10 8 9 10 14 16 17 21 23 25 28 27 25 37 32 31 30 29 24 23 22 20 21 24 26 31 36 42 49 54
15 19 16 21 23 20 21 23 22 23 22 25 15 13 14 16 17 18 21 22 24 27 30 29 28 26 24 36 31 30 29 27 26 27 25 23 24 27 31 32 35 41 44
17 17 19 18 23 19 21 22 21 20 18 22 20 13 10 2 9 23 18 19 24 29 29 30 29 29 28 24 28 37 32 33 32 32 31 28 28 28 29 31 34 38 42
17 18 17 17 18 20 19 20 18 20 18 19 22 15 14 15 27 14 17 17 22 25 28 28 28 28 28 26 30 30 36 33 34 35 36 36 33 33 30 29 30 33 39
16 16 16 16 17 15 18 18 18 14 17 18 19 16 16 19 20 20 18 24 24 32 29 32 29 27 28 28 31 37 36 38 34 35 36 38 38 36 35 38 35 33 35
15 12 14 15 15 14 18 20 19 17 15 20 20 22 22 22 24 26 39 35 33 30 33 30 34 30 30 31 30 33 44 36 35 35 38 41 39 38 39 40 40 36 34
12 15 11 13 15 17 19 20 22 23 24 24 23 25 26 29 31 35 41 44 46 41 36 35 31 35 33 34 36 41 43 40 40 41 41 42 41 40 39 39 40 38 39
11 13 13 14 14 19 22 24 26 28 28 29 31 31 33 36 37 40 42 49 54 52 50 42 38 33 37 37 36 43 46 47 47 46 44 46 45 42 40 38 40 39 39
11 16 15 16 19 21 24 26 27 29 31 33 37 39 40 41 43 46 45 56 64 62 61 53 49 44 42 40 40 48 47 46 47 48 48 47 46 43 41 38 37 34 35
13 18 19 21 23 25 27 30 31 35 36 37 39 44 48 46 48 53 58 61 64 70 69 74 65 57 54 49 46 43 44 43 53 50 49 48 47 46 45 39 39 36 35
21 22 23 26 28 30 31 32 35 38 40 43 45 46 50 51 53 51 53 55 56 68 81 75 70 69 73 76 73 67 57 53 54 50 49 51 49 46 46 43 42 40 38
23 25 27 30 32 34 35 37 41 44 45 46 46 50 51 51 50 47 46 46 50 56 67 76 77 76 69 71 73 72 76 61 48 48 50 50 48 44 46 44 43 40 40
25 29 31 31 33 33 34 38 41 42 42 41 40 41 42 43 43 41 41 47 52 53 61 70 71 69 73 65 60 55 63 62 51 47 51 51 50 48 44 43 40 38 36
26 28 30 28 28 28 30 31 33 35 34 35 39 41 43 45 47 49 54 59 60 62 59 64 69 69 69 68 65 62 61 49 67 55 53 58 50 48 48 45 42 39 37
27 25 22 21 22 23 24 28 27 30 33 34 37 39 41 43 47 50 49 51 53 59 62 63 63 66 63 59 61 63 68 56 67 57 45 43 41 42 44 48 46 41 38
18 17 17 17 16 20 28 32 34 28 31 34 37 37 37 44 45 54 54 56 56 55 58 61 59 58 57 56 54 52 65 60 53 55 51 45 41 39 37 38 42 41 38
16 16 14 14 18 23 29 36 42 34 32 32 37 38 39 38 43 50 55 51 52 56 56 57 56 55 55 50 53 41 28 46 59 65 60 46 38 34 32 31 31 28 29
13 14 14 13 20 27 36 42 43 28 28 32 33 36 38 38 45 59 66 60 51 49 44 48 50 53 55 50 45 40 34 28 46 58 40 45 41 36 32 31 37 39 36
11 11 13 16 17 29 39 40 38 33 32 35 33 33 37 43 50 64 69 63 61 57 45 47 47 48 46 45 40 49 44 43 51 51 40 39 32 32 28 28 33 29 26
7 8 11 16 23 24 37 43 47 35 36 37 35 39 42 47 61 59 59 59 60 63 47 49 48 42 40 37 34 31 22 30 27 46 35 35 31 33 26 27 27 22 25
6 7 11 15 21 22 35 44 49 37 36 37 35 36 44 55 55 54 60 54 63 56 54 50 43 40 41 32 27 24 23 13 26 23 43 38 32 29 25 27 24 22 28
Wind_Direction_500mb
22 11 9 7 0 358 356 355 351 349 345 326 314 292 288 282 283 262 256 276 273 292 295 307 315 315 314 304 294 282 274 272 270 263 261 263 264 265 267 267 265 263 264
27 20 9 2 357 359 2 359 353 351 346 330 316 307 294 293 290 246 237 290 295 289 297 307 309 307 308 306 301 292 283 278 274 274 266 262 264 266 266 267 267 265 263
16 28 12 3 354 358 1 2 1 360 353 348 327 324 310 300 274 246 241 253 295 312 303 300 297 298 298 298 299 297 288 283 279 278 275 270 266 264 266 268 268 268 267
10 16 9 -0 359 358 360 5 3 6 2 1 353 358 345 332 283 273 270 266 276 287 302 306 302 297 291 289 291 292 293 288 288 281 277 276 273 270 266 265 266 269 269
357 8 357 357 6 359 357 7 8 7 6 360 354 359 345 304 292 279 280 293 299 301 297 298 304 300 295 284 285 286 289 288 286 288 287 277 277 279 274 271 266 264 266
335 352 347 352 9 356 356 2 6 8 3 354 335 304 296 290 290 293 292 306 300 309 310 302 302 304 298 290 281 284 287 284 282 288 290 289 286 290 286 282 278 270 266
319 330 341 344 355 348 357 358 360 356 2 359 354 326 288 284 280 278 295 296 299 307 304 306 306 293 293 300 297 279 281 278 275 283 284 286 287 290 291 294 290 284 280
311 317 321 330 334 351 350 354 355 1 355 355 2 338 342 275 346 307 282 294 299 307 308 300 291 292 288 279 275 282 281 274 270 271 276 281 290 292 294 293 294 294 285
300 300 305 307 331 359 342 348 343 349 350 354 356 9 346 351 333 327 309 313 305 313 311 309 295 289 287 277 273 288 296 277 267 270 270 276 280 285 289 293 301 306 298
295 296 293 296 311 329 333 340 327 333 341 344 345 335 321 309 323 315 313 309 315 314 309 314 301 294 286 280 275 273 265 277 272 265 268 271 276 279 284 283 284 296 311
306 299 290 293 300 321 306 315 321 315 322 317 324 320 313 309 299 294 305 311 309 307 306 303 301 294 285 285 278 278 281 276 273 270 269 269 271 277 279 280 279 288 300
311 300 299 297 303 297 307 306 301 303 300 295 296 298 300 297 297 297 297 302 306 308 300 302 295 292 284 277 275 270 269 274 273 271 268 264 268 274 279 277 276 280 283
321 308 309 318 306 296 299 296 295 290 291 288 285 288 288 288 288 288 288 288 292 297 297 294 289 286 279 278 272 268 274 274 271 271 268 263 265 269 273 275 273 272 277
318 306 318 312 304 302 301 298 297 293 288 289 286 282 283 284 282 286 283 293 292 288 294 290 287 280 274 271 263 259 270 277 277 268 266 263 261 265 268 268 268 269 275
313 308 312 316 316 306 300 296 295 292 289 289 287 286 285 286 287 283 288 285 278 282 283 286 291 287 285 269 261 265 262 262 265 267 262 259 261 264 264 263 263 265 267
315 316 315 310 311 307 302 297 295 294 290 290 291 291 292 290 295 296 294 295 292 290 280 296 299 293 283 279 267 268 263 261 266 265 261 258 259 261 259 259 260 262 263
304 306 304 304 306 303 300 297 296 296 295 296 297 303 305 305 299 301 303 302 300 300 294 301 300 300 295 295 298 291 271 260 257 265 265 258 255 258 255 257 257 260 261
301 305 305 303 304 304 304 302 301 307 312 314 315 313 314 316 312 310 308 306 305 305 296 294 304 303 306 301 296 288 300 260 248 251 260 263 254 254 255 255 254 254 256
303 303 306 311 315 317 316 322 325 323 323 323 324 323 323 322 318 317 314 311 307 302 300 296 296 307 305 299 295 288 294 278 257 244 250 253 251 252 251 249 251 251 253
308 315 323 333 338 343 333 339 340 335 332 328 325 324 321 319 314 316 315 310 311 304 306 305 300 305 302 312 300 295 295 285 257 233 237 244 252 249 247 244 246 246 248
333 347 352 356 7 351 353 348 347 338 333 328 325 325 324 324 328 313 317 319 314 309 305 307 311 311 302 299 302 309 291 291 239 240 236 231 236 242 246 239 240 242 248
355 5 24 18 2 354 350 342 338 339 337 335 334 332 333 335 317 312 323 320 316 317 316 311 311 308 309 304 298 303 307 285 245 238 243 228 224 228 231 234 245 240 250
17 16 16 19 355 349 343 339 340 343 342 341 339 341 338 333 337 332 330 334 330 322 317 313 312 312 312 306 301 298 282 299 273 244 241 224 216 225 225 226 232 250 252
5 18 24 15 5 340 343 344 348 342 339 343 345 343 348 350 344 341 333 337 342 331 323 319 319 318 317 309 291 289 287 293 292 250 229 221 206 215 218 219 241 253 225
45 44 19 2 356 346 351 349 350 354 341 346 346 345 347 347 345 344 343 342 341 335 325 322 327 320 315 324 306 291 279 294 239 242 206 221 214 211 210 221 239 245 227
51 16 3 359 353 357 347 351 352 356 346 349 345 343 336 329 343 358 354 343 340 338 335 328 329 332 341 330 323 281 255 274 244 264 218 220 218 206 216 212 215 239 217
Wind_Speed_850mb
19 19 18 18 20 22 24 25 25 25 22 19 16 15 14 14 15 10 10 23 20 18 19 23 29 31 30 28 27 31 34 35 34 40 43 43 44 48 49 49 47 48 49
25 19 21 21 23 23 23 24 25 24 23 19 15 14 11 11 10 10 11 17 18 22 26 31 34 33 33 29 27 25 27 30 32 33 39 45 46 46 48 49 50 49 49
23 21 20 21 22 22 24 23 24 23 22 18 15 10 6 6 6 7 8 12 17 27 31 36 36 35 35 32 29 27 27 28 29 30 31 36 40 43 46 50 53 52 51
24 20 20 21 25 22 23 25 24 24 22 18 13 8 5 3 5 7 9 10 18 21 28 38 35 33 33 32 31 29 30 25 29 30 33 34 37 39 44 47 50 53 54
16 20 19 22 23 20 21 24 23 24 23 17 12 9 6 4 6 10 14 15 19 21 24 27 38 32 32 31 30 30 31 29 30 28 26 29 34 36 39 43 48 52 53
16 19 18 23 23 19 19 23 24 23 21 20 9 10 8 9 10 14 16 17 21 23 25 28 27 25 37 32 31 30 29 24 23 22 20 21 24 26 31 36 42 49 54
15 19 16 21 23 20 21 23 22 23 22 25 15 13 14 16 17 18 21 22 24 27 30 29 28 26 24 36 31 30 29 27 26 27 25 23 24 27 31 32 35 41 44
17 17 19 18 23 19 21 22 21 20 18 22 20 13 10 2 9 23 18 19 24 29 29 30 29 29 28 24 28 37 32 33 32 32 31 28 28 28 29 31 34 38 42
17 18 17 17 18 20 19 20 18 20 18 19 22 15 14 15 27 14 17 17 22 25 28 28 28 28 28 26 30 30 36 33 34 35 36 36 33 33 30 29 30 33 39
16 16 16 16 17 15 18 18 18 14 17 18 19 16 16 19 20 20 18 24 24 32 29 32 29 27 28 28 31 37 36 38 34 35 36 38 38 36 35 38 35 33 35
15 12 14 15 15 14 18 20 19 17 15 20 20 22 22 22 24 26 39 35 33 30 33 30 34 30 30 31 30 33 44 36 35 35 38 41 39 38 39 40 40 36 34
12 15 11 13 15 17 19 20 22 23 24 24 23 25 26 29 31 35 41 44 46 41 36 35 31 35 33 34 36 41 43 40 40 41 41 42 41 40 39 39 40 38 39
11 13 13 14 14 19 22 24 26 28 28 29 31 31 33 36 37 40 42 49 54 52 50 42 38 33 37 37 36 43 46 47 47 46 44 46 45 42 40 38 40 39 39
11 16 15 16 19 21 24 26 27 29 31 33 37 39 40 41 43 46 45 56 64 62 61 53 49 44 42 40 40 48 47 46 47 48 48 47 46 43 41 38 37 34 35
13 18 19 21 23 25 27 30 31 35 36 37 39 44 48 46 48 53 58 61 64 70 69 74 65 57 54 49 46 43 44 43 53 50 49 48 47 46 45 39 39 36 35
21 22 23 26 28 30 31 32 35 38 40 43 45 46 50 51 53 51 53 55 56 68 81 75 70 69 73 76 73 67 57 53 54 50 49 51 49 46 46 43 42 40 38
23 25 27 30 32 34 35 37 41 44 45 46 46 50 51 51 50 47 46 46 50 56 67 76 77 76 69 71 73 72 76 61 48 48 50 50 48 44 46 44 43 40 40
25 29 31 31 33 33 34 38 41 42 42 41 40 41 42 43 43 41 41 47 52 53 61 70 71 69 73 65 60 55 63 62 51 47 51 51 50 48 44 43 40 38 36
26 28 30 28 28 28 30 31 33 35 34 35 39 41 43 45 47 49 54 59 60 62 59 64 69 69 69 68 65 62 61 49 67 55 53 58 50 48 48 45 42 39 37
27 25 22 21 22 23 24 28 27 30 33 34 37 39 41 43 47 50 49 51 53 59 62 63 63 66 63 59 61 63 68 56 67 57 45 43 41 42 44 48 46 41 38
18 17 17 17 16 20 28 32 34 28 31 34 37 37 37 44 45 54 54 56 56 55 58 61 59 58 57 56 54 52 65 60 53 55 51 45 41 39 37 38 42 41 38
16 16 14 14 18 23 29 36 42 34 32 32 37 38 39 38 43 50 55 51 52 56 56 57 56 55 55 50 53 41 28 46 59 65 60 46 38 34 32 31 31 28 29
13 14 14 13 20 27 36 42 43 28 28 32 33 36 38 38 45 59 66 60 51 49 44 48 50 53 55 50 45 40 34 28 46 58 40 45 41 36 32 31 37 39 36
11 11 13 16 17 29 39 40 38 33 32 35 33 33 37 43 50 64 69 63 61 57 45 47 47 48 46 45 40 49 44 43 51 51 40 39 32 32 28 28 33 29 26
7 8 11 16 23 24 37 43 47 35 36 37 35 39 42 47 61 59 59 59 60 63 47 49 48 42 40 37 34 31 22 30 27 46 35 35 31 33 26 27 27 22 25
6 7 11 15 21 22 35 44 49 37 36 37 35 36 44 55 55 54 60 54 63 56 54 50 43 40 41 32 27 24 23 13 26 23 43 38 32 29 25 27 24 22 28
Wind_Direction_850mb
22 11 9 7 0 358 356 355 351 349 345 326 314 292 288 282 283 262 256 276 273 292 295 307 315 315 314 304 294 282 274 272 270 263 261 263 264 265 267 267 265 263 264
27 20 9 2 357 359 2 359 353 351 346 330 316 307 294 293 290 246 237 290 295 289 297 307 309 307 308 306 301 292 283 278 274 274 266 262 264 266 266 267 267 265 263
16 28 12 3 354 358 1 2 1 360 353 348 327 324 310 300 274 246 241 253 295 312 303 300 297 298 298 298 299 297 288 283 279 278 275 270 266 264 266 268 268 268 267
10 16 9 -0 359 358 360 5 3 6 2 1 353 358 345 332 283 273 270 266 276 287 302 306 302 297 291 289 291 292 293 288 288 281 277 276 273 270 266 265 266 269 269
357 8 357 357 6 359 357 7 8 7 6 360 354 359 345 304 292 279 280 293 299 301 297 298 304 300 295 284 285 286 289 288 286 288 287 277 277 279 274 271 266 264 266
335 352 347 352 9 356 356 2 6 8 3 354 335 304 296 290 290 293 292 306 300 309 310 302 302 304 298 290 281 284 287 284 282 288 290 289 286 290 286 282 278 270 266
319 330 341 344 355 348 357 358 360 356 2 359 354 326 288 284 280 278 295 296 299 307 304 306 306 293 293 300 297 279 281 278 275 283 284 286 287 290 291 294 290 284 280
311 317 321 330 334 351 350 354 355 1 355 355 2 338 342 275 346 307 282 294 299 307 308 300 291 292 288 279 275 282 281 274 270 271 276 281 290 292 294 293 294 294 285
300 300 305 307 331 359 342 348 343 349 350 354 356 9 346 351 333 327 309 313 305 313 311 309 295 289 287 277 273 288 296 277 267 270 270 276 280 285 289 293 301 306 298
295 296 293 296 311 329 333 340 327 333 341 344 345 335 321 309 323 315 313 309 315 314 309 314 301 294 286 280 275 273 265 277 272 265 268 271 276 279 284 283 284 296 311
306 299 290 293 300 321 306 315 321 315 322 317 324 320 313 309 299 294 305 311 309 307 306 303 301 294 285 285 278 278 281 276 273 270 269 269 271 277 279 280 279 288 300
311 300 299 297 303 297 307 306 301 303 300 295 296 298 300 297 297 297 297 302 306 308 300 302 295 292 284 277 275 270 269 274 273 271 268 264 268 274 279 277 276 280 283
321 308 309 318 306 296 299 296 295 290 291 288 285 288 288 288 288 288 288 288 292 297 297 294 289 286 279 278 272 268 274 274 271 271 268 263 265 269 273 275 273 272 277
318 306 318 312 304 302 301 298 297 293 288 289 286 282 283 284 282 286 283 293 292 288 294 290 287 280 274 271 263 259 270 277 277 268 266 263 261 265 268 268 268 269 275
313 308 312 316 316 306 300 296 295 292 289 289 287 286 285 286 287 283 288 285 278 282 283 286 291 287 285 269 261 265 262 262 265 267 262 259 261 264 264 263 263 265 267
315 316 315 310 311 307 302 297 295 294 290 290 291 291 292 290 295 296 294 295 292 290 280 296 299 293 283 279 267 268 263 261 266 265 261 258 259 261 259 259 260 262 263
304 306 304 304 306 303 300 297 296 296 295 296 297 303 305 305 299 301 303 302 300 300 294 301 300 300 295 295 298 291 271 260 257 265 265 258 255 258 255 257 257 260 261
301 305 305 303 304 304 304 302 301 307 312 314 315 313 314 316 312 310 308 306 305 305 296 294 304 303 306 301 296 288 300 260 248 251 260 263 254 254 255 255 254 254 256
303 303 306 311 315 317 316 322 325 323 323 323 324 323 323 322 318 317 314 311 307 302 300 296 296 307 305 299 295 288 294 278 257 244 250 253 251 252 251 249 251 251 253
308 315 323 333 338 343 333 339 340 335 332 328 325 324 321 319 314 316 315 310 311 304 306 305 300 305 302 312 300 295 295 285 257 233 237 244 252 249 247 244 246 246 248
333 347 352 356 7 351 353 348 347 338 333 328 325 325 324 324 328 313 317 319 314 309 305 307 311 311 302 299 302 309 291 291 239 240 236 231 236 242 246 239 240 242 248
355 5 24 18 2 354 350 342 338 339 337 335 334 332 333 335 317 312 323 320 316 317 316 311 311 308 309 304 298 303 307 285 245 238 243 228 224 228 231 234 245 240 250
17 16 16 19 355 349 343 339 340 343 342 341 339 341 338 333 337 332 330 334 330 322 317 313 312 312 312 306 301 298 282 299 273 244 241 224 216 225 225 226 232 250 252
5 18 24 15 5 340 343 344 348 342 339 343 345 343 348 350 344 341 333 337 342 331 323 319 319 318 317 309 291 289 287 293 292 250 229 221 206 215 218 219 241 253 225
45 44 19 2 356 346 351 349 350 354 341 346 346 345 347 347 345 344 343 342 341 335 325 322 327 320 315 324 306 291 279 294 239 242 206 221 214 211 210 221 239 245 227
51 16 3 359 353 357 347 351 352 356 346 349 345 343 336 329 343 358 354 343 340 338 335 328 329 332 341 330 323 281 255 274 244 264 218 220 218 206 216 212 215 239 217